Starlink 3207

operational
NORAD ID: 49756 Int'l Des: 2021-115 Owner: SPXS Country: US Constellation: starlink
LEOCIRCULAR

About Starlink 3207

Description loading...

Live Position

Loading 3D Globe...

Upcoming Passes

Altitude History

Altitude vs Time

uPlot chart will show altitude changes over time

Two-Line Element Set

1 49756U 21115AJ 25258.28337472 -.00000495 00000-0 -13015-4 0 9993
2 49756 53.2161 206.5514 0001421 88.1274 271.9881 15.08841533209197
Epoch: Sep 15, 2025 • Age: 12 hours

Current Status

Altitude 541.0 km
Velocity 7.60 km/s
Sub-Earth Point 31.03°N, 84.6°E
Launch Date Dec 2, 2021
Age 3.7 years
Type internet

Technical Details

Classification Payload
Mass 290.00 kg
Dry Mass 270.00 kg
Total Mass 290.00 kg
Length 0.20 m
Diameter 2.80 m
Span 9.00 m
Shape Box + pan
Manufacturer SPXS
Bus Type Starlink
Phase Status In Orbit
Owner/State SPXS/US

Large Constellations

Loading constellations...